Location: Unspecified
(41.5000°N, 0.0000°E)
Time: 11:52:20
(UTC+00:00)

Courier 1B - Visible Passes

Search period start: 05 August 2020 00:00
Search period end: 15 August 2020 00:00
Orbit: 962 x 1209 km, 28.3° (Epoch: 04 August)

Date Brightness Start Highest point End Pass type
(mag) Time Alt. Az. Time Alt. Az. Time Alt. Az.
05 Aug 9.2 19:38:50 10° S 19:42:22 15° SSE 19:45:50 10° SE visible
05 Aug 8.9 21:30:13 10° SW 21:33:43 22° SSW 21:33:43 22° SSW visible
06 Aug 8.7 20:36:46 10° SW 20:41:54 22° S 20:43:30 21° SSE visible
06 Aug 9.6 22:29:45 10° WSW 22:30:25 12° SW 22:30:25 12° SW visible
07 Aug 9.0 19:43:25 10° SSW 19:48:21 20° SSE 19:53:06 10° ESE visible
07 Aug 8.8 21:36:02 10° SW 21:40:06 24° SSW 21:40:06 24° SSW visible
08 Aug 8.6 20:42:23 10° SW 20:47:56 26° S 20:49:43 23° SSE visible
08 Aug 9.7 22:36:01 10° WSW 22:36:36 12° WSW 22:36:36 12° WSW visible
09 Aug 8.8 19:48:46 10° SW 19:54:22 25° S 19:59:15 12° ESE visible
09 Aug 8.9 21:42:08 10° WSW 21:46:08 23° SSW 21:46:08 23° SSW visible
10 Aug 8.6 20:48:18 10° WSW 20:54:00 27° S 20:55:39 24° SSE visible
11 Aug 8.8 19:54:31 10° SW 20:00:25 27° S 20:05:06 14° SE visible
11 Aug 9.1 21:48:32 10° WSW 21:51:58 20° SSW 21:51:58 20° SSW visible
12 Aug 8.8 20:54:30 10° WSW 21:00:02 24° S 21:01:25 23° S visible
13 Aug 8.8 20:00:32 10° WSW 20:06:26 27° S 20:10:50 15° SE visible
13 Aug 9.5 21:55:23 10° WSW 21:57:43 15° SW 21:57:43 15° SW visible
14 Aug 9.0 21:01:01 10° WSW 21:05:59 20° SSW 21:07:08 19° S visible
